Wind_Speed
31 33 33 34 35 35 35 36 36 36 36 35 35 35 34 34 34 34 33 31 31 30 28 28 27 26 25 24 23 22 21 20 20 19 19 18 18 17 17 17 16 15 15
31 32 34 34 35 36 36 37 38 39 38 38 38 38 39 38 38 36 35 35 34 33 32 31 30 29 28 27 26 25 24 24 23 21 21 20 20 19 19 19 18 17 17
29 30 32 33 35 35 36 37 38 39 40 40 40 40 41 40 39 37 37 37 36 35 35 34 33 31 30 30 29 28 27 26 26 25 24 23 22 22 21 21 20 20 19
27 28 29 31 32 34 35 36 37 38 40 41 42 41 41 40 39 39 38 37 36 37 37 35 35 33 32 31 31 31 30 29 29 28 28 26 25 24 23 22 22 22 21
25 25 26 28 30 32 33 35 36 37 39 40 41 41 40 39 38 37 36 36 36 36 38 38 37 36 34 33 32 32 32 32 32 31 31 30 28 26 25 24 24 24 23
22 23 24 26 28 30 32 34 35 37 38 39 40 39 38 37 37 36 36 36 35 35 37 37 37 38 37 35 34 34 34 33 33 33 33 32 31 30 28 27 26 25 25
22 23 24 25 27 29 31 33 35 37 38 39 39 39 38 38 36 35 35 33 33 34 35 36 36 37 38 36 35 35 34 33 33 33 34 34 34 33 32 30 28 28 27
21 22 23 25 27 29 31 33 35 37 38 39 39 38 37 36 34 34 32 31 31 32 33 34 35 36 38 37 36 36 35 33 33 33 34 35 35 35 35 34 32 30 30
22 22 24 25 27 29 31 33 35 36 37 38 39 39 38 35 33 32 31 31 31 31 31 31 32 33 33 34 35 35 35 33 32 33 34 35 36 37 36 36 34 32 31
23 24 25 26 27 29 31 33 35 36 37 38 39 40 38 36 35 32 31 30 29 29 30 30 31 32 33 33 34 34 33 33 32 33 33 35 36 37 37 37 36 34 33
26 26 26 27 28 30 31 33 34 36 37 38 38 39 38 36 35 33 31 30 30 30 30 31 32 32 32 33 33 33 32 32 32 32 33 34 35 37 37 38 37 36 35
28 27 27 28 30 31 32 33 34 35 36 37 38 38 37 36 35 34 33 31 31 30 30 30 31 31 32 33 33 32 32 32 32 32 32 33 35 36 37 37 37 36 36
30 29 29 30 31 32 33 34 34 34 35 36 36 36 36 36 35 35 34 33 32 31 30 30 30 30 31 32 32 31 31 32 32 32 32 33 34 35 35 36 37 35 35
32 31 31 31 32 33 33 34 34 34 34 34 34 34 34 34 34 35 34 34 33 32 32 31 31 31 31 31 31 31 30 31 31 32 32 33 34 34 35 35 37 37 36
34 33 33 33 33 34 34 34 33 33 33 33 32 31 31 32 33 34 34 34 34 33 33 32 33 32 31 31 30 30 30 31 31 32 32 34 35 35 35 35 36 37 36
36 36 34 34 34 34 34 34 33 33 33 32 31 30 30 31 32 33 34 34 34 34 34 34 33 32 31 31 30 30 30 30 31 31 32 33 34 35 36 36 36 36 36
38 37 37 36 36 36 35 35 34 33 33 32 30 29 29 29 30 32 32 33 33 34 34 34 33 31 31 31 30 30 30 30 31 31 31 31 32 33 34 34 36 36 37
43 41 40 39 38 37 36 36 34 33 33 32 30 29 28 28 29 30 31 32 33 33 33 33 32 32 31 31 31 30 29 28 29 29 30 30 31 32 33 34 34 35 36
48 46 44 42 41 40 38 37 35 34 33 32 30 29 28 28 28 29 29 30 31 31 31 32 32 32 32 31 30 29 28 28 28 29 29 30 30 30 31 31 32 33 36
53 50 48 46 44 42 40 38 37 35 33 32 30 29 28 27 26 27 27 27 29 30 30 30 31 31 30 30 29 29 28 28 28 28 28 28 28 28 28 29 30 32 33
59 56 52 50 48 45 42 40 38 36 34 32 31 29 27 25 25 25 25 26 27 28 29 30 29 29 30 30 29 30 29 27 26 26 25 25 25 25 25 26 27 28 30
64 60 56 53 50 48 44 41 39 36 34 32 30 29 27 25 24 24 24 25 26 27 27 28 29 28 29 29 28 27 27 26 24 23 22 22 22 22 23 24 25 27 28
67 63 58 55 51 48 45 41 39 36 33 30 28 27 25 24 24 24 23 23 24 25 27 26 26 27 26 26 25 24 23 22 20 20 19 18 18 18 19 21 22 23 24
64 60 56 52 49 46 43 40 37 35 33 30 27 26 25 25 23 22 21 22 22 22 22 22 23 24 24 23 21 21 20 18 17 17 16 15 15 15 16 17 19 21 23
58 56 53 50 47 44 41 39 37 35 32 29 27 25 24 23 22 22 21 22 22 21 20 20 21 21 21 20 18 17 16 15 15 14 12 12 12 12 13 15 18 20 23
49 49 48 46 44 43 40 38 36 34 31 29 26 24 23 22 22 21 21 21 21 20 20 20 19 18 17 17 16 15 14 13 11 10 9 9 9 10 11 14 16 18 21
Wind_Direction
283 281 280 278 278 277 275 273 272 271 271 271 272 273 274 273 272 270 268 267 265 261 259 259 258 256 255 254 254 252 251 250 248 246 244 243 242 241 241 240 241 243 245
284 282 281 280 280 279 277 275 273 272 272 272 272 273 273 275 274 273 271 269 266 262 259 257 256 255 255 255 255 253 251 250 249 247 246 245 244 242 241 240 241 242 243
285 283 283 281 279 280 280 279 276 274 273 273 273 275 276 278 278 276 275 272 268 263 259 257 256 255 255 255 255 255 253 251 250 248 247 247 246 244 242 240 240 241 241
288 287 287 285 285 284 283 282 280 278 275 275 274 274 275 276 277 277 277 274 270 265 260 258 255 255 256 256 255 255 255 253 251 249 248 247 246 245 243 242 240 240 241
292 292 291 289 289 288 287 286 284 281 279 278 277 276 277 278 277 278 277 274 270 266 261 260 257 255 255 255 256 257 257 254 252 250 248 247 246 245 244 243 242 241 240
296 297 297 296 294 292 290 288 286 284 283 281 279 279 278 278 279 277 275 272 268 265 262 261 257 255 254 254 256 257 257 256 253 250 247 246 246 245 244 244 244 243 242
298 299 301 301 300 298 296 292 288 286 284 283 281 280 279 278 278 277 274 271 267 265 262 259 256 254 253 253 255 257 258 258 255 252 249 247 246 245 244 245 245 245 244
299 300 301 302 301 300 298 295 292 288 286 283 281 279 278 276 277 276 274 271 267 264 263 258 256 254 253 252 254 256 257 259 256 252 250 247 245 244 245 245 246 247 245
299 300 302 303 303 302 301 298 294 291 287 284 282 280 278 275 274 273 270 267 265 265 264 259 256 255 253 253 254 254 255 256 255 252 250 248 246 245 245 245 246 246 246
298 301 303 304 305 305 304 301 297 293 290 285 282 279 277 274 270 269 268 269 267 264 264 261 256 255 254 254 254 254 254 254 254 252 249 248 246 244 244 244 246 246 246
294 298 301 303 305 307 306 304 300 296 291 287 282 278 275 273 270 267 266 267 266 265 264 262 257 255 254 253 252 252 252 252 252 251 249 248 246 244 243 243 245 246 246
291 294 299 301 304 306 307 306 305 300 294 288 283 278 274 271 268 266 264 264 264 264 264 263 259 254 254 253 252 251 252 251 251 250 248 247 245 244 242 243 243 244 246
289 292 295 299 301 304 306 307 306 304 299 292 285 280 274 270 266 264 263 262 262 262 263 261 259 257 256 253 251 251 251 250 249 249 247 246 245 243 241 242 241 243 245
287 289 292 295 298 301 303 305 305 305 302 296 289 282 275 269 266 263 261 260 260 260 260 259 258 258 256 255 252 251 251 249 249 248 246 245 243 242 241 241 241 243 244
286 288 290 293 295 298 300 302 303 304 302 298 292 284 277 270 265 263 261 259 259 259 259 258 257 257 255 253 253 252 250 249 248 249 247 246 244 243 243 243 242 241 242
286 287 289 290 292 295 297 298 300 301 300 297 293 286 278 272 265 262 260 259 258 257 257 256 256 254 253 251 251 249 249 248 247 248 247 246 246 246 244 243 241 240 239
285 286 288 289 290 292 293 295 296 298 298 295 292 287 280 273 267 262 259 257 257 255 255 254 253 252 250 249 250 249 249 248 247 246 247 247 247 246 245 244 243 243 241
285 286 287 288 289 289 289 291 292 294 294 292 290 286 280 273 267 262 259 257 255 254 252 251 250 249 248 247 247 248 246 246 245 246 245 246 247 247 247 247 246 246 245
283 284 284 286 287 287 286 286 288 290 290 288 286 284 280 272 266 261 258 255 251 249 249 250 247 246 245 245 244 241 243 245 245 246 245 246 247 248 249 250 249 249 248
280 281 282 282 283 284 283 282 284 285 285 285 283 280 277 271 265 259 255 252 247 246 247 245 244 242 241 243 243 242 244 245 245 245 245 246 248 249 251 252 252 252 252
277 277 278 279 280 279 278 278 279 280 280 280 279 276 273 269 261 256 252 248 244 243 242 240 241 240 237 238 240 241 242 242 240 241 243 245 246 248 250 251 252 253 254
274 274 274 275 276 275 273 273 273 274 276 276 274 271 267 263 256 252 249 244 241 240 240 238 238 237 233 235 238 239 238 237 237 239 242 246 249 251 252 253 255 257 258
271 271 271 271 270 269 268 267 266 268 269 269 267 264 261 256 252 247 244 241 240 240 239 239 236 236 234 233 233 234 234 233 235 240 244 246 248 251 254 257 261 264 266
266 266 265 264 263 262 261 259 259 261 261 261 260 257 255 252 247 242 241 238 238 238 234 233 231 230 229 227 228 228 229 231 234 234 237 244 250 256 261 265 268 270 272
261 259 257 255 254 253 251 250 251 253 253 253 252 250 248 245 240 237 234 236 236 234 232 231 229 223 219 219 219 220 221 224 226 230 234 241 249 257 264 270 274 277 279
255 252 249 246 243 243 242 242 243 244 245 244 242 239 239 237 234 231 230 230 229 228 226 221 215 212 211 209 210 211 211 213 215 220 228 239 251 263 275 283 288 288 288
Height
5876 5874 5873 5872 5870 5869 5869 5868 5867 5867 5866 5866 5865 5865 5865 5864 5863 5864 5864 5864 5864 5865 5865 5866 5866 5867 5867 5867 5868 5869 5870 5871 5872 5873 5874 5874 5875 5876 5877 5878 5879 5881 5882
5869 5868 5866 5865 5863 5862 5861 5860 5860 5859 5859 5858 5857 5857 5856 5856 5856 5855 5855 5855 5856 5857 5858 5858 5859 5860 5860 5861 5862 5864 5865 5866 5867 5868 5869 5870 5871 5872 5873 5874 5875 5877 5878
5862 5861 5859 5858 5856 5854 5853 5852 5852 5851 5850 5849 5849 5848 5848 5847 5847 5847 5847 5847 5847 5847 5849 5850 5851 5852 5853 5854 5856 5857 5858 5860 5861 5862 5864 5865 5866 5867 5868 5869 5871 5872 5874
5856 5854 5852 5851 5849 5847 5846 5845 5843 5842 5841 5840 5839 5839 5839 5838 5838 5838 5838 5837 5837 5838 5839 5841 5842 5844 5845 5847 5848 5849 5851 5853 5854 5856 5857 5859 5860 5862 5863 5864 5866 5867 5869
5849 5847 5846 5844 5842 5840 5838 5837 5835 5833 5832 5831 5830 5830 5829 5829 5829 5829 5829 5828 5828 5829 5830 5831 5833 5835 5837 5839 5840 5842 5843 5845 5847 5848 5850 5852 5854 5856 5857 5859 5860 5862 5863
5843 5841 5839 5837 5835 5833 5831 5829 5827 5825 5824 5823 5821 5821 5821 5820 5820 5820 5820 5819 5819 5820 5820 5822 5824 5826 5828 5830 5832 5833 5835 5837 5838 5840 5842 5844 5847 5849 5851 5853 5855 5856 5858
5837 5835 5833 5831 5828 5826 5824 5821 5819 5817 5816 5814 5812 5812 5812 5811 5811 5811 5811 5811 5811 5811 5812 5813 5814 5817 5819 5821 5823 5825 5826 5828 5830 5832 5834 5836 5839 5841 5844 5846 5848 5850 5852
5831 5829 5827 5824 5822 5819 5816 5814 5811 5809 5807 5805 5803 5802 5803 5804 5803 5802 5802 5802 5802 5803 5803 5804 5806 5808 5810 5812 5814 5816 5818 5820 5822 5823 5826 5828 5831 5833 5836 5839 5841 5843 5845
5825 5823 5820 5818 5815 5812 5809 5806 5803 5800 5798 5796 5794 5793 5793 5794 5794 5794 5794 5794 5794 5795 5795 5796 5797 5800 5801 5803 5806 5808 5809 5811 5813 5815 5817 5820 5822 5825 5828 5831 5833 5835 5837
5818 5816 5813 5811 5807 5804 5801 5797 5794 5791 5788 5787 5784 5783 5783 5784 5784 5785 5786 5786 5786 5786 5787 5788 5789 5791 5793 5795 5797 5799 5801 5802 5804 5806 5808 5811 5813 5816 5819 5822 5825 5827 5830
5811 5809 5806 5803 5800 5797 5793 5789 5786 5782 5779 5777 5775 5774 5773 5774 5775 5776 5778 5778 5778 5779 5779 5780 5781 5783 5785 5787 5789 5790 5792 5794 5796 5797 5800 5802 5804 5807 5810 5814 5817 5819 5822
5803 5801 5798 5795 5792 5789 5785 5781 5778 5774 5770 5767 5765 5764 5764 5765 5766 5767 5768 5770 5770 5771 5771 5772 5773 5775 5776 5778 5780 5782 5784 5786 5787 5789 5791 5794 5796 5799 5802 5805 5808 5811 5813
5795 5793 5790 5787 5784 5781 5777 5773 5769 5765 5761 5758 5756 5755 5754 5755 5757 5758 5759 5760 5761 5763 5763 5764 5765 5767 5768 5769 5771 5773 5776 5778 5779 5781 5783 5786 5788 5791 5794 5797 5800 5802 5805
5786 5784 5781 5778 5775 5772 5769 5765 5761 5757 5753 5749 5747 5746 5745 5746 5747 5748 5750 5751 5752 5754 5755 5756 5757 5758 5760 5761 5763 5765 5767 5769 5771 5773 5776 5778 5781 5783 5786 5789 5792 5794 5797
5775 5774 5771 5769 5766 5763 5760 5756 5753 5749 5745 5741 5739 5737 5736 5737 5737 5739 5740 5742 5743 5745 5746 5748 5749 5750 5752 5753 5755 5757 5759 5761 5763 5766 5768 5770 5773 5776 5778 5781 5783 5786 5789
5764 5763 5761 5759 5756 5753 5750 5747 5744 5740 5737 5733 5731 5729 5728 5728 5728 5729 5730 5732 5734 5735 5737 5739 5740 5741 5744 5746 5748 5749 5751 5753 5756 5758 5760 5762 5765 5767 5770 5773 5775 5777 5780
5753 5751 5750 5748 5746 5743 5740 5738 5735 5731 5728 5725 5723 5721 5720 5719 5719 5720 5721 5723 5724 5726 5728 5729 5731 5733 5736 5738 5740 5742 5744 5746 5748 5750 5753 5755 5757 5759 5761 5764 5767 5769 5771
5740 5739 5738 5736 5735 5732 5730 5728 5725 5722 5720 5717 5715 5713 5712 5711 5711 5711 5713 5714 5716 5717 5719 5721 5723 5725 5728 5731 5732 5735 5737 5739 5741 5743 5745 5748 5750 5751 5754 5756 5758 5761 5763
5725 5725 5725 5724 5723 5721 5719 5717 5715 5713 5711 5709 5707 5705 5704 5703 5703 5703 5704 5705 5707 5709 5711 5713 5715 5717 5720 5723 5725 5727 5730 5732 5734 5737 5739 5741 5742 5744 5746 5748 5750 5752 5755
5709 5710 5710 5710 5710 5709 5708 5706 5705 5703 5701 5700 5698 5697 5696 5695 5695 5695 5696 5697 5699 5701 5703 5705 5707 5710 5713 5715 5718 5721 5723 5725 5728 5730 5732 5734 5735 5737 5739 5741 5743 5745 5747
5691 5693 5694 5695 5696 5696 5695 5695 5694 5693 5691 5690 5689 5688 5688 5687 5687 5688 5689 5690 5692 5694 5696 5698 5700 5703 5706 5709 5712 5714 5716 5719 5721 5723 5725 5727 5729 5731 5733 5735 5736 5738 5739
5672 5674 5676 5679 5680 5682 5682 5683 5682 5682 5681 5681 5680 5680 5680 5680 5680 5681 5682 5683 5685 5687 5689 5691 5694 5696 5699 5702 5705 5708 5710 5713 5716 5718 5720 5722 5724 5725 5727 5728 5729 5731 5732
5650 5654 5657 5661 5664 5666 5668 5670 5671 5671 5671 5671 5671 5671 5672 5672 5673 5674 5675 5677 5679 5681 5683 5686 5688 5690 5693 5696 5699 5702 5705 5707 5710 5713 5715 5717 5718 5719 5721 5722 5723 5724 5724
5628 5633 5637 5642 5647 5650 5654 5656 5658 5660 5661 5662 5663 5663 5664 5665 5666 5667 5669 5671 5673 5675 5678 5680 5682 5685 5688 5691 5694 5697 5700 5703 5706 5708 5710 5712 5713 5715 5716 5716 5717 5717 5718
5605 5611 5618 5624 5629 5635 5639 5643 5646 5649 5651 5653 5654 5656 5657 5658 5660 5662 5664 5666 5668 5670 5673 5675 5678 5681 5684 5687 5690 5693 5696 5699 5702 5704 5706 5708 5709 5710 5711 5711 5711 5711 5711
5585 5591 5598 5606 5613 5619 5625 5630 5635 5638 5642 5644 5646 5648 5650 5652 5654 5656 5658 5661 5663 5666 5669 5671 5674 5677 5680 5684 5687 5690 5693 5696 5698 5700 5702 5704 5705 5706 5706 5706 5706 5705 5704